Location: ??????
(56.0120°N, 39.1740°E)
Time: 21:24:12
(UTC+00:00)

ATLAS 3B R/B - Pass Details

Date: 14 April 2026
Orbit: 937 x 1257 km, 63.8° (Epoch: 11 May)

Event Time Altitude Azimuth Distance (km) Brightness Sun altitude
Rises 19:49:52 0° 284° (WNW) 4,194 6.4 -21.5°
Reaches altitude 10° 19:52:48 10° 290° (WNW) 3,240 5.8 -21.7°
Maximum altitude 20:00:25 49° 4° (N) 1,582 3.9 -22.1°
Drops below altitude 10° 20:07:55 10° 79° (ENE) 3,183 5.1 -22.5°
Sets 20:10:46 0° 85° (E) 4,116 5.6 -22.6°
